This demonstration page uses our WeatherBlox Daily Observations layout. Learn more.

Left ArrowRight Arrow

39.01783, -85.05884

Hourly Observations for June 24, 2017

Temp ( °F °C ) Dew Point ( °F °C ) Humidity (%) Winds ( mph kmh ) Pressure ( in mb ) Visibility ( mi km ) Precip ( " mm )
12:52 am 00:52 Clear 66 18.9 65 18.3 96 96 N N/A 29.85 1011 8 13 N/A
1:52 am 01:52 Clear 65 18.3 65 18.3 100 100 WSW 5 7 29.85 1011 7 11 N/A
2:52 am 02:52 Clear with Patchy Fog 65 18.3 65 18.3 100 100 WSW 3 6 29.85 1011 7 11 N/A
3:52 am 03:52 Clear with Fog 62 16.7 61 16.1 96 96 SW 3 6 29.86 1011 1 1 N/A
4:02 am 04:02 Mostly Cloudy with Fog 61 16.1 61 16.1 100 100 SSW 3 6 29.88 1012 0 0 N/A
4:32 am 04:32 Partly Cloudy with Mist and Fog 63 17.2 63 17.2 100 100 SW 5 7 29.85 1011 1 2 N/A
4:38 am 04:38 Mostly Clear with Mist and Fog 63 17.2 63 17.2 100 100 W 5 7 29.85 1011 3 5 N/A
4:52 am 04:52 Clear with Fog 62 16.7 62 16.7 100 100 W 7 11 29.87 1012 1 1 N/A
4:59 am 04:59 Mostly Clear with Patchy Fog 62 16.7 62 16.7 100 100 W 6 9 29.85 1011 2 3 N/A
5:47 am 05:47 Partly Cloudy 63 17 61 16 94 94 WSW 6 9 29.88 1012 10 16 N/A
5:52 am 05:52 Partly Cloudy 62 16.7 62 16.7 100 100 WSW 5 7 29.89 1012 10 16 N/A
6:52 am 06:52 Partly Cloudy 63 17.2 62 16.7 97 97 W 8 13 29.91 1013 10 16 N/A
7:52 am 07:52 Partly Cloudy 65 18.3 62 16.7 90 90 W 6 9 29.93 1014 10 16 N/A
8:52 am 08:52 Partly Cloudy 67 19.4 61 16.1 81 81 WNW 8 13 29.95 1014 10 16 N/A
9:52 am 09:52 Partly Cloudy 69 20.6 62 16.7 78 78 W 9 15 29.97 1015 10 16 N/A
10:52 am 10:52 Partly Cloudy 71 21.7 61 16.1 71 71 VRB 5 7 29.97 1015 10 16 N/A
11:52 am 11:52 Partly Cloudy 74 23.3 60 15.6 62 62 W 9 15 29.97 1015 10 16 N/A
12:52 pm 12:52 Partly Cloudy 75 23.9 58 14.4 55 55 WSW 8 13 29.98 1015 10 16 N/A
1:52 pm 13:52 Partly Cloudy 76 24.4 58 14.4 54 54 W 9 15 29.98 1015 10 16 N/A
2:52 pm 14:52 Partly Cloudy 77 25 58 14.4 52 52 W 17 28 29.99 1016 10 16 N/A
3:52 pm 15:52 Mostly Cloudy 78 25.6 57 13.9 48 48 W 17 28 29.99 1016 10 16 N/A
4:52 pm 16:52 Mostly Cloudy 78 25.6 59 15 52 52 WNW 13 20 29.98 1015 10 16 N/A
5:52 pm 17:52 Mostly Cloudy 76 24.4 57 13.9 52 52 W 13 20 29.99 1016 10 16 N/A
6:52 pm 18:52 Mostly Cloudy 75 23.9 56 13.3 52 52 W 12 19 29.99 1016 10 16 N/A
7:52 pm 19:52 Mostly Cloudy 73 22.8 55 12.8 53 53 W 8 13 30.01 1016 10 16 N/A
8:52 pm 20:52 Mostly Cloudy 71 21.7 57 13.9 61 61 W 6 9 30.02 1017 10 16 N/A
9:52 pm 21:52 Mostly Cloudy 68 20 58 14.4 70 70 W 6 9 30.05 1018 10 16 N/A
10:52 pm 22:52 Partly Cloudy 68 20 54 12.2 61 61 WNW 9 15 30.08 1019 10 16 N/A
11:52 pm 23:52 Mostly Clear 66 18.9 53 11.7 63 63 WNW 10 17 30.09 1019 10 16 N/A

Powered by AerisWeather